Starlink 31631

operational
NORAD ID: 59459 Int'l Des: 2024-068 Owner: SPXS Country: US Constellation: starlink
LEOCIRCULAR

About Starlink 31631

Description loading...

Live Position

Loading 3D Globe...

Upcoming Passes

Altitude History

Altitude vs Time

uPlot chart will show altitude changes over time

Two-Line Element Set

1 59459U 24068E 25312.83957611 .00000532 00000-0 28837-4 0 9997
2 59459 43.0028 353.2709 0000525 288.9062 71.1732 15.27575041 90082
Epoch: Nov 8, 2025 • Age: 34 hours

Current Status

Altitude 491.0 km
Velocity 7.62 km/s
Sub-Earth Point -30.72°S, 159.25°E
Launch Date Apr 10, 2024
Age 1.5 years
Type internet

Technical Details

Classification Payload
Mass 730.00 kg
Dry Mass 700.00 kg
Total Mass 730.00 kg
Length 0.30 m
Diameter 4.10 m
Span 29.00 m
Shape Box + pan
Manufacturer SPXS
Bus Type Starlink V2M
Phase Status In Orbit
Owner/State SPXS/US

Large Constellations

Loading constellations...